Overview Statistics Trail Chart Weather Telemetry Raw packets
 

This is the latest recevied weather packets stored in our database for station/object K4WCH. If no packets are shown the sender has not sent any weather packets the latest 10 day(s).

<< 1 2 3 4 5 6 >>
Time Temp. Humidity Pressure Rain* Wind** Luminosity Snow
1788656903 24.44° C 91% 1012.9 hPa - - 0 W/m² -
1788656599 24.44° C 91% 1013.2 hPa - - 0 W/m² -
1788656294 24.44° C 91% 1013.1 hPa 0 mm - 0 W/m² -
1788655993 24.44° C 90% 1013.1 hPa 0 mm - 0 W/m² -
1788655693 24.44° C 90% 1013.2 hPa 0 mm - 0 W/m² -
1788655393 24.44° C 90% 1013 hPa 0 mm - 0 W/m² -
1788655088 24.44° C 90% 1013.1 hPa 0 mm - 0 W/m² -
1788654783 24.44° C 90% 1013 hPa 0 mm - 0 W/m² -
1788654479 24.44° C 90% 1013.2 hPa 0 mm - 0 W/m² -
1788654178 24.44° C 89% 1013.2 hPa 0 mm - 0 W/m² -
1788653874 24.44° C 89% 1013.2 hPa 0 mm - 0 W/m² -
1788653568 25° C 88% 1013.3 hPa 0 mm - 0 W/m² -
1788653264 25° C 89% 1013.2 hPa 0 mm - 0 W/m² -
1788652964 25° C 89% 1013.3 hPa 0 mm - 0 W/m² -
1788652659 25° C 88% 1013.2 hPa 0 mm - 0 W/m² -
1788652358 25° C 88% 1013.3 hPa 0 mm - 0 W/m² -
1788652054 25° C 87% 1013.3 hPa 0 mm - 2 W/m² -
1788651749 25.56° C 89% 1013.1 hPa 0 mm - 5 W/m² -
1788651445 25.56° C 89% 1013 hPa 0 mm - 8 W/m² -
1788651144 26.11° C 89% 1013.3 hPa 0 mm - 12 W/m² -
1788650839 26.11° C 88% 1012.9 hPa 0 mm - 14 W/m² -
1788650535 26.67° C 87% 1013.2 hPa 0 mm - 17 W/m² -
1788650230 26.67° C 85% 1013.1 hPa 0 mm - 24 W/m² -
1788649926 26.67° C 84% 1013 hPa 0 mm - 27 W/m² -
1788649622 27.22° C 83% 1013 hPa 0 mm - 23 W/m² -

* Rain since midnight (hover to see other rain measurements)
** Current wind speed in m/s (hover to see current wind gust speed)